• In Austria
  • List of Countries
  • For 7 days
  • Water Temperature
  • Satellite Maps
  • Weather Map
  • News
  • Weather Widgets
  • user-avatar
    Login

    Hourly Weather Kadyivka

    Today, 25 September, Tuesday

    Time Temperature Precipitation Wind Pressure Humidity
    00:00 +5°C° 0 mm 7 mps 733 mmHg 72%
    01:00 +5°C° 0 mm 7 mps 733 mmHg 73%
    02:00 +5°C° 0 mm 7 mps 733 mmHg 75%
    03:00 +5°C° 0 mm 7 mps 734 mmHg 74%
    04:00 +5°C° 0 mm 7 mps 734 mmHg 74%
    05:00 +5°C° 0 mm 7 mps 734 mmHg 73%
    06:00 +5°C° 0 mm 8 mps 735 mmHg 73%
    07:00 +4°C° 0 mm 8 mps 735 mmHg 73%
    08:00 +4°C° 0 mm 8 mps 736 mmHg 72%
    09:00 +5°C° 0 mm 8 mps 736 mmHg 69%
    10:00 +6°C° 0 mm 8 mps 737 mmHg 65%
    11:00 +6°C° 0 mm 8 mps 738 mmHg 61%
    12:00 +7°C° 0.1 mm 8 mps 738 mmHg 57%
    13:00 +9°C° 0.1 mm 8 mps 738 mmHg 53%
    14:00 +10°C° 0.1 mm 8 mps 738 mmHg 49%
    15:00 +9°C° 0.2 mm 7 mps 739 mmHg 52%
    16:00 +9°C° 0.2 mm 7 mps 739 mmHg 55%
    17:00 +8°C° 0.2 mm 6 mps 739 mmHg 58%
    18:00 +7°C° 0 mm 6 mps 740 mmHg 63%
    19:00 +6°C° 0 mm 5 mps 740 mmHg 67%
    20:00 +5°C° 0 mm 5 mps 741 mmHg 71%
    21:00 +5°C° 0 mm 5 mps 741 mmHg 73%
    22:00 +5°C° 0 mm 5 mps 742 mmHg 75%
    23:00 +5°C° 0 mm 5 mps 742 mmHg 77%

    Tomorrow, 26 September, Wednesday

    Time Temperature Precipitation Wind Pressure Humidity
    00:00 +3°C° 0 mm 5 mps 742 mmHg 79%
    01:00 +3°C° 0 mm 5 mps 743 mmHg 81%
    02:00 +3°C° 0 mm 5 mps 743 mmHg 83%
    03:00 +2°C° 0 mm 5 mps 743 mmHg 85%
    04:00 +3°C° 0 mm 4 mps 744 mmHg 86%
    05:00 +1°C° 0 mm 4 mps 744 mmHg 87%
    06:00 +2°C° 0 mm 5 mps 744 mmHg 84%
    07:00 +3°C° 0 mm 5 mps 745 mmHg 80%
    08:00 +3°C° 0 mm 5 mps 745 mmHg 76%
    09:00 +6°C° 0 mm 5 mps 746 mmHg 67%
    10:00 +7°C° 0 mm 5 mps 746 mmHg 58%
    11:00 +9°C° 0 mm 6 mps 746 mmHg 49%
    12:00 +9°C° 0 mm 5 mps 746 mmHg 48%
    13:00 +11°C° 0 mm 4 mps 746 mmHg 46%
    14:00 +11°C° 0 mm 4 mps 745 mmHg 45%
    15:00 +11°C° 0 mm 4 mps 745 mmHg 48%
    16:00 +11°C° 0 mm 3 mps 745 mmHg 50%
    17:00 +10°C° 0 mm 3 mps 745 mmHg 53%
    18:00 +9°C° 0 mm 3 mps 745 mmHg 58%
    19:00 +8°C° 0 mm 2 mps 745 mmHg 63%
    20:00 +6°C° 0 mm 2 mps 745 mmHg 68%
    21:00 +6°C° 0 mm 2 mps 744 mmHg 68%
    22:00 +6°C° 0 mm 2 mps 744 mmHg 69%
    23:00 +6°C° 0 mm 2 mps 744 mmHg 70%

    Day after tomorrow, 27 September, Thursday

    Time Temperature Precipitation Wind Pressure Humidity
    00:00 +5°C° 0 mm 3 mps 744 mmHg 69%
    01:00 +4°C° 0 mm 3 mps 743 mmHg 68%
    02:00 +4°C° 0 mm 4 mps 743 mmHg 68%
    03:00 +4°C° 0 mm 4 mps 742 mmHg 67%
    04:00 +4°C° 0 mm 4 mps 742 mmHg 65%
    05:00 +4°C° 0 mm 4 mps 741 mmHg 64%
    06:00 +5°C° 0 mm 4 mps 741 mmHg 60%
    07:00 +6°C° 0 mm 5 mps 741 mmHg 56%
    08:00 +8°C° 0 mm 5 mps 741 mmHg 52%
    09:00 +9°C° 0 mm 5 mps 741 mmHg 51%
    10:00 +10°C° 0 mm 6 mps 741 mmHg 49%
    11:00 +11°C° 0 mm 6 mps 740 mmHg 47%
    12:00 +13°C° 0 mm 6 mps 740 mmHg 48%
    13:00 +14°C° 0 mm 6 mps 740 mmHg 49%
    14:00 +15°C° 0 mm 6 mps 740 mmHg 50%
    15:00 +15°C° 0 mm 6 mps 740 mmHg 54%
    16:00 +15°C° 0 mm 5 mps 739 mmHg 58%
    17:00 +15°C° 0 mm 4 mps 739 mmHg 62%
    18:00 +14°C° 0 mm 4 mps 739 mmHg 67%
    19:00 +13°C° 0 mm 4 mps 739 mmHg 72%
    20:00 +11°C° 0 mm 3 mps 739 mmHg 77%
    21:00 +11°C° 0 mm 3 mps 739 mmHg 77%
    22:00 +11°C° 0 mm 3 mps 739 mmHg 78%
    23:00 +11°C° 0 mm 3 mps 739 mmHg 78%

    28 September, Friday

    Time Temperature Precipitation Wind Pressure Humidity
    00:00 +10°C° 0 mm 3 mps 739 mmHg 79%
    01:00 +10°C° 0 mm 3 mps 739 mmHg 80%
    02:00 +9°C° 0 mm 3 mps 739 mmHg 81%
    03:00 +9°C° 0 mm 2 mps 738 mmHg 82%
    04:00 +9°C° 0 mm 2 mps 738 mmHg 83%
    05:00 +8°C° 0 mm 2 mps 738 mmHg 84%
    06:00 +9°C° 0 mm 2 mps 738 mmHg 80%
    07:00 +10°C° 0 mm 2 mps 738 mmHg 77%
    08:00 +12°C° 0 mm 2 mps 737 mmHg 73%
    09:00 +13°C° 0 mm 3 mps 737 mmHg 68%
    10:00 +16°C° 0 mm 3 mps 737 mmHg 62%
    11:00 +18°C° 0 mm 4 mps 737 mmHg 57%
    12:00 +19°C° 0 mm 4 mps 736 mmHg 56%
    13:00 +20°C° 0 mm 4 mps 736 mmHg 54%
    14:00 +21°C° 0 mm 4 mps 735 mmHg 52%
    15:00 +21°C° 0 mm 3 mps 735 mmHg 56%
    16:00 +20°C° 0 mm 2 mps 734 mmHg 59%
    17:00 +20°C° 0 mm 2 mps 734 mmHg 62%
    18:00 +18°C° 0 mm 2 mps 734 mmHg 66%
    19:00 +17°C° 0 mm 2 mps 733 mmHg 69%
    20:00 +15°C° 0 mm 2 mps 733 mmHg 73%
    21:00 +15°C° 0 mm 2 mps 733 mmHg 74%
    22:00 +14°C° 0 mm 2 mps 733 mmHg 75%
    23:00 +14°C° 0 mm 2 mps 733 mmHg 76%

    29 September, Saturday

    Time Temperature Precipitation Wind Pressure Humidity
    00:00 +13°C° 0 mm 2 mps 733 mmHg 76%
    01:00 +13°C° 0 mm 2 mps 733 mmHg 77%
    02:00 +12°C° 0 mm 2 mps 733 mmHg 77%
    03:00 +12°C° 0 mm 2 mps 733 mmHg 80%
    04:00 +12°C° 0 mm 2 mps 733 mmHg 83%
    05:00 +10°C° 0 mm 2 mps 733 mmHg 85%
    06:00 +10°C° 0 mm 3 mps 733 mmHg 85%
    07:00 +11°C° 0 mm 3 mps 734 mmHg 85%
    08:00 +11°C° 0 mm 3 mps 734 mmHg 85%
    09:00 +12°C° 0 mm 4 mps 735 mmHg 80%
    10:00 +13°C° 0 mm 4 mps 735 mmHg 74%
    11:00 +14°C° 0 mm 5 mps 735 mmHg 68%
    12:00 +14°C° 0 mm 5 mps 735 mmHg 63%
    13:00 +15°C° 0 mm 5 mps 736 mmHg 58%
    14:00 +15°C° 0 mm 5 mps 736 mmHg 53%
    15:00 +14°C° 0 mm 4 mps 736 mmHg 54%
    16:00 +14°C° 0 mm 4 mps 736 mmHg 56%
    17:00 +13°C° 0 mm 4 mps 736 mmHg 57%
    18:00 +12°C° 0 mm 4 mps 737 mmHg 62%
    19:00 +11°C° 0 mm 3 mps 737 mmHg 68%
    20:00 +9°C° 0 mm 3 mps 738 mmHg 73%
    21:00 +9°C° 0 mm 3 mps 738 mmHg 75%
    22:00 +8°C° 0 mm 3 mps 738 mmHg 78%
    23:00 +7°C° 0 mm 4 mps 739 mmHg 80%

    30 September, Sunday

    Time Temperature Precipitation Wind Pressure Humidity
    00:00 +7°C° 0 mm 3 mps 739 mmHg 80%
    01:00 +5°C° 0 mm 3 mps 739 mmHg 81%
    02:00 +5°C° 0 mm 3 mps 740 mmHg 81%
    03:00 +4°C° 0 mm 3 mps 740 mmHg 82%
    04:00 +4°C° 0 mm 3 mps 740 mmHg 83%
    05:00 +3°C° 0 mm 3 mps 740 mmHg 84%
    06:00 +4°C° 0 mm 3 mps 740 mmHg 81%
    07:00 +4°C° 0 mm 3 mps 740 mmHg 78%
    08:00 +5°C° 0 mm 3 mps 740 mmHg 75%
    09:00 +8°C° 0 mm 3 mps 740 mmHg 68%
    10:00 +9°C° 0 mm 3 mps 740 mmHg 61%
    11:00 +12°C° 0 mm 2 mps 740 mmHg 54%
    12:00 +13°C° 0 mm 2 mps 740 mmHg 50%
    13:00 +13°C° 0 mm 2 mps 739 mmHg 47%
    14:00 +14°C° 0 mm 2 mps 739 mmHg 44%
    15:00 +14°C° 0 mm 2 mps 739 mmHg 46%
    16:00 +13°C° 0 mm 2 mps 738 mmHg 48%
    17:00 +13°C° 0 mm 2 mps 738 mmHg 50%
    18:00 +12°C° 0 mm 2 mps 738 mmHg 51%
    19:00 +9°C° 0 mm 2 mps 738 mmHg 52%
    20:00 +8°C° 0 mm 2 mps 738 mmHg 54%
    21:00 +8°C° 0 mm 3 mps 738 mmHg 53%
    22:00 +7°C° 0 mm 3 mps 737 mmHg 53%
    23:00 +7°C° 0 mm 3 mps 737 mmHg 52%
    Show more